AI5BL Weather Reports


Display with metric or nautical units.
time (UTC)temp
F
wind
direction
speed
MPH
gust
MPH
rain 1hr
in
rain 24hr
in
rain mn
in
humidity
%
barometer
mb
20260509183353 70 80 0.0 1.0 0.00 0.99 0.99 91 1014.2
20260509182849 69 82 0.0 0.0 0.00 0.99 0.99 93 1014.2
20260509182347 69 102 0.0 1.0 0.00 0.99 0.99 95 1014.1
20260509181844 69 98 0.0 1.0 0.00 0.99 0.99 93 1014.1
20260509181341 69 88 0.0 1.0 0.00 0.99 0.99 95 1014.1
20260509180839 69 97 0.0 0.0 0.00 0.99 0.99 96 1014.0
20260509180334 68 106 0.0 1.0 0.00 0.99 0.99 96 1013.8
20260509175832 68 92 0.0 1.0 0.00 0.99 0.99 97 1014.0
20260509175328 68 99 0.0 0.0 0.00 0.99 0.99 97 1014.0
20260509174823 67 101 0.0 0.0 0.00 0.99 0.99 97 1014.0
20260509174319 67 84 0.0 0.0 0.00 0.99 0.99 99 1014.1
20260509173816 67 99 0.0 1.0 0.00 0.99 0.99 99 1014.1
20260509173311 67 102 0.0 0.0 0.00 0.99 0.99 99 1014.3
20260509172807 67 97 0.0 0.0 0.00 0.99 0.99 99 1014.4
20260509172306 66 94 0.0 0.0 0.00 0.99 0.99 99 1014.8
20260509171800 67 104 0.0 0.0 0.00 0.99 0.99 99 1014.9
20260509171256 66 102 0.0 0.0 0.00 0.99 0.99 99 1015.2
20260509170753 66 96 0.0 0.0 0.00 0.99 0.99 99 1015.2
20260509170249 67 77 0.0 0.0 0.00 0.99 0.99 99 1015.1
20260509165748 67 90 0.0 0.0 0.00 0.99 0.99 99 1015.3
20260509165243 66 109 0.0 1.0 0.00 0.99 0.99 99 1015.5
20260509164739 67 95 0.0 0.0 0.00 0.99 0.99 99 1015.6
20260509164235 66 97 0.0 0.0 0.00 0.99 0.99 99 1015.5
20260509163732 66 102 0.0 0.0 0.00 0.99 0.99 99 1015.5
20260509163229 65 106 0.0 0.0 0.00 0.99 0.99 99 1015.4
20260509162727 65 74 0.0 1.0 0.00 0.99 0.99 99 1015.3
20260509162221 65 95 0.0 0.0 0.00 0.99 0.99 99 1015.3
20260509161717 65 105 0.0 0.0 0.00 0.99 0.99 99 1015.2
20260509161214 65 90 0.0 0.0 0.00 0.99 0.99 99 1015.0
20260509160709 64 99 0.0 0.0 0.00 0.99 0.99 99 1014.9
20260509160206 64 65 0.0 1.0 0.00 0.99 0.99 99 1014.9
20260509155701 64 90 0.0 0.0 0.00 0.99 0.99 99 1015.0
20260509155157 65 57 1.0 1.0 0.00 0.99 0.99 99 1015.0
20260509154653 64 83 0.0 0.0 0.00 0.99 0.99 99 1015.1
20260509154151 64 64 1.0 1.0 0.00 0.99 0.99 99 1015.2
20260509153647 64 59 0.0 1.0 0.00 0.99 0.99 99 1014.9
20260509153144 0 0.0 0.0 0.00 0.00 0.00 1015.2
20260509152640 63 67 1.0 2.0 0.00 0.99 0.99 99 1015.2
20260509152137 63 67 1.0 2.0 0.00 0.99 0.99 99 1014.9
20260509151634 63 67 1.0 2.0 0.00 0.99 0.99 99 1014.9
20260509151131 63 67 1.0 2.0 0.00 0.99 0.99 99 1014.8
20260509150629 63 67 1.0 2.0 0.00 0.99 0.99 99 1014.8
20260509150127 63 67 1.0 2.0 0.00 0.99 0.99 99 1015.0
20260509145623 63 67 1.0 2.0 0.00 0.99 0.99 99 1014.8
20260509145118 63 67 1.0 2.0 0.00 0.99 0.99 99 1014.5
20260509144615 63 67 1.0 2.0 0.00 0.99 0.99 99 1015.0
20260509144112 63 67 1.0 2.0 0.00 0.99 0.99 99 1014.8
20260509143609 63 67 1.0 2.0 0.00 0.99 0.99 99 1014.9
20260509143107 63 67 1.0 2.0 0.12 0.99 0.99 99 1014.2
20260509142602 63 128 0.0 1.0 0.00 0.97 0.97 99 1014.4
20260509142058 63 128 0.0 1.0 0.00 0.97 0.97 99 1014.6
20260509141555 63 128 0.0 1.0 0.00 0.97 0.97 99 1014.5
20260509141051 63 128 0.0 1.0 0.42 0.97 0.97 99 1014.5
20260509140548 63 155 2.0 2.0 0.31 0.95 0.95 99 1014.5
20260509140046 63 104 0.0 0.0 0.00 0.90 0.90 99 1014.5
20260509135543 63 104 0.0 0.0 0.12 0.90 0.90 99 1014.7
20260509135041 63 104 0.0 0.0 0.12 0.90 0.90 99 1014.8
20260509134538 63 113 1.0 2.0 0.05 0.88 0.88 99 1014.4
20260509134035 63 90 0.0 0.0 0.19 0.88 0.88 99 1014.7
20260509133532 63 104 2.0 2.0 0.05 0.85 0.85 99 1014.4
20260509133030 63 104 2.0 2.0 0.12 0.85 0.85 99 1014.5
20260509132528 63 122 2.0 2.0 0.24 0.84 0.84 99 1015.0
20260509132026 63 90 1.0 2.0 0.28 0.83 0.83 99 1015.9
20260509131522 63 105 1.0 1.0 0.24 0.80 0.80 99 1015.9
20260509131019 63 102 0.0 0.0 0.12 0.78 0.78 99 1016.1
20260509130514 63 99 0.0 0.0 0.07 0.76 0.76 99 1016.1
20260509130011 63 99 0.0 0.0 0.05 0.75 0.75 99 1016.1
20260509125508 63 99 0.0 1.0 0.12 0.75 0.75 99 1016.0
20260509125004 63 49 1.0 1.0 0.07 0.73 0.73 99 1016.1
20260509124501 63 104 0.0 0.0 0.35 0.72 0.72 99 1016.5
20260509123958 63 73 0.0 0.0 0.35 0.72 0.72 99 1016.2
20260509123456 63 93 0.0 0.0 0.00 0.66 0.66 99 1015.9
20260509122951 63 93 0.0 0.0 0.00 0.66 0.66 99 1015.8
20260509122448 63 93 0.0 0.0 0.05 0.66 0.66 99 1015.8
20260509121945 63 93 0.0 0.0 0.83 0.66 0.66 99 1016.1
20260509121442 63 110 0.0 0.0 0.78 0.65 0.65 99 1016.1
20260509120940 63 97 0.0 0.0 0.00 0.52 0.52 99 1015.9
20260509120438 63 97 0.0 0.0 0.00 0.52 0.52 99 1016.0
20260509115935 63 97 0.0 0.0 0.00 0.52 0.52 99 1015.7
20260509115432 63 97 0.0 0.0 0.42 0.52 0.52 99 1015.9
20260509114930 63 101 0.0 0.0 0.97 0.45 0.45 99 1016.0
20260509114429 63 99 0.0 0.0 2.03 0.44 0.44 99 1016.0
20260509113928 63 88 0.0 1.0 1.72 0.29 0.29 99 1015.9
20260509113424 64 104 0.0 1.0 0.59 0.10 0.10 99 1015.8
20260509112921 63 107 0.0 0.0 0.00 0.00 0.00 99 1014.6
20260509112419 63 107 0.0 0.0 0.00 0.00 0.00 99 1014.0
20260509111915 63 96 0.0 0.0 0.00 0.00 0.00 99 1013.7
20260509111412 63 110 0.0 2.0 0.00 0.00 0.00 99 1013.3
20260509110910 63 106 0.0 0.0 0.00 0.00 0.00 99 1012.9
20260509110405 63 81 0.0 0.0 0.00 0.00 0.00 99 1013.1
20260509105904 63 194 1.0 1.0 0.00 0.00 0.00 99 1013.1
20260509105402 63 102 0.0 2.0 0.00 0.00 0.00 99 1012.8
20260509104859 63 126 0.0 1.0 0.00 0.00 0.00 99 1012.8
20260509104355 63 104 0.0 1.0 0.00 0.00 0.00 99 1012.9
20260509103853 63 90 0.0 1.0 0.00 0.00 0.00 99 1012.9
20260509103350 63 98 0.0 0.0 0.00 0.00 0.00 99 1013.3
20260509102849 63 100 0.0 1.0 0.00 0.00 0.00 99 1013.0
20260509102346 63 102 0.0 0.0 0.00 0.00 0.00 99 1013.1
20260509101841 63 85 0.0 1.0 0.00 0.00 0.00 99 1013.1
20260509101337 63 86 0.0 0.0 0.00 0.00 0.00 99 1013.2
20260509100836 63 90 0.0 0.0 0.00 0.00 0.00 99 1013.3
20260509100333 63 154 0.0 1.0 0.00 0.00 0.00 99 1013.2
20260509095829 63 107 0.0 0.0 0.00 0.00 0.00 99 1013.2
20260509095326 63 97 0.0 1.0 0.00 0.00 0.00 99 1013.2
20260509094824 63 69 0.0 1.0 0.00 0.00 0.00 99 1013.4
20260509094320 63 69 0.0 2.0 0.00 0.00 0.00 99 1013.2
20260509093818 63 78 0.0 0.0 0.00 0.00 0.00 99 1013.2
20260509093315 63 74 0.0 1.0 0.00 0.00 0.00 99 1013.2
20260509092814 63 94 0.0 0.0 0.00 0.00 0.00 99 1013.2
20260509092311 63 71 0.0 0.0 0.00 0.00 0.00 99 1013.1
20260509091809 63 96 0.0 0.0 0.00 0.00 0.00 99 1013.4
20260509091305 63 83 0.0 0.0 0.00 0.00 0.00 99 1013.1
20260509090803 63 88 0.0 0.0 0.00 0.00 0.00 99 1013.1
20260509090300 63 84 0.0 0.0 0.00 0.00 0.00 99 1013.1
20260509085757 63 98 0.0 0.0 0.00 0.00 0.00 99 1012.9
20260509085254 63 60 0.0 1.0 0.00 0.00 0.00 99 1012.9
20260509084751 63 67 0.0 1.0 0.00 0.00 0.00 99 1012.9
20260509084247 63 70 0.0 0.0 0.00 0.00 0.00 99 1013.1
20260509083746 63 75 0.0 0.0 0.00 0.00 0.00 99 1013.1
20260509083242 63 77 0.0 0.0 0.00 0.00 0.00 99 1013.5
20260509082738 63 90 0.0 0.0 0.00 0.00 0.00 99 1013.7
20260509082235 63 101 0.0 0.0 0.00 0.00 0.00 99 1014.0
20260509081732 63 85 0.0 0.0 0.00 0.00 0.00 99 1013.6
20260509081230 63 85 0.0 0.0 0.00 0.00 0.00 99 1014.0
20260509080728 63 90 0.0 0.0 0.00 0.00 0.00 99 1014.0
20260509080225 63 93 0.0 0.0 0.00 0.00 0.00 99 1013.7
20260509075723 63 93 0.0 0.0 0.00 0.00 0.00 99 1013.7
20260509075220 63 93 0.0 0.0 0.00 0.00 0.00 99 1013.8
20260509074717 63 88 0.0 0.0 0.00 0.00 0.00 99 1013.6
20260509074215 63 76 0.0 0.0 0.00 0.00 0.00 99 1014.0
20260509073711 63 83 0.0 0.0 0.00 0.00 0.00 99 1014.0
20260509073207 63 79 0.0 0.0 0.00 0.00 0.00 99 1014.0
20260509072704 63 95 0.0 0.0 0.00 0.00 0.00 99 1013.6
20260509072201 63 96 0.0 0.0 0.00 0.00 0.00 99 1013.6
20260509071657 63 88 0.0 0.0 0.00 0.00 0.00 99 1013.7
20260509071155 63 101 0.0 0.0 0.00 0.00 0.00 99 1013.6
20260509070651 63 101 0.0 0.0 0.00 0.00 0.00 99 1013.5
20260509070148 63 86 0.0 0.0 0.00 0.00 0.00 99 1013.7
20260509065644 63 86 0.0 0.0 0.00 0.00 0.00 99 1013.6
20260509065140 63 80 0.0 0.0 0.00 0.00 0.00 99 1013.5
20260509064637 63 94 0.0 0.0 0.00 0.00 0.00 99 1013.5
20260509064135 63 94 0.0 0.0 0.00 0.00 0.00 99 1013.8
20260509063632 63 94 0.0 0.0 0.00 0.00 0.00 99 1013.8
20260509063128 63 96 0.0 0.0 0.00 0.00 0.00 99 1014.0
20260509062626 63 97 0.0 0.0 0.00 0.00 0.00 99 1014.2
20260509062122 63 88 0.0 0.0 0.00 0.00 0.00 99 1014.2
20260509061619 63 99 0.0 0.0 0.00 0.00 0.00 99 1014.3
20260509061117 63 101 0.0 0.0 0.00 0.00 0.00 99 1014.4
20260509060615 63 91 0.0 0.0 0.00 0.00 0.00 99 1014.5
20260509060110 63 91 0.0 0.0 0.00 0.00 0.00 99 1014.5
20260509055606 63 92 0.0 0.0 0.00 0.00 0.00 99 1014.5
20260509055102 63 88 0.0 0.0 0.00 0.00 0.00 99 1014.6
20260509054559 63 95 0.0 0.0 0.00 0.00 0.00 99 1014.7
20260509054057 63 94 0.0 0.0 0.00 0.00 0.00 99 1014.5
20260509053555 63 93 0.0 0.0 0.00 0.00 0.00 99 1014.6
20260509053051 63 85 0.0 0.0 0.00 0.00 0.00 99 1014.7
20260509052549 63 86 0.0 0.0 0.00 0.00 0.00 99 1014.7
20260509052047 63 100 0.0 0.0 0.00 0.00 0.00 99 1014.7
20260509051545 63 98 1.0 2.0 0.00 0.00 0.00 99 1014.6
20260509051041 63 99 0.0 0.0 0.00 0.00 0.00 99 1014.8
20260509050538 63 85 0.0 1.0 0.00 0.00 0.00 99 1014.7
20260509050035 63 92 0.0 0.0 0.00 0.49 0.49 99 1014.2
20260509045532 63 99 0.0 0.0 0.00 0.49 0.49 99 1014.2
20260509045029 63 105 0.0 1.0 0.00 0.49 0.49 99 1014.4
20260509044527 62 90 0.0 0.0 0.00 0.49 0.49 99 1014.4
20260509044024 62 89 0.0 1.0 0.00 0.49 0.49 99 1014.4
20260509043520 63 96 0.0 0.0 0.00 0.49 0.49 99 1014.3
20260509043016 63 104 0.0 0.0 0.00 0.49 0.49 99 1014.4
20260509042512 63 108 0.0 1.0 0.00 0.49 0.49 99 1014.3
20260509042009 62 73 0.0 0.0 0.00 0.49 0.49 99 1014.6
20260509041505 62 104 0.0 0.0 0.00 0.49 0.49 99 1014.5
20260509041003 62 88 0.0 0.0 0.00 0.49 0.49 99 1014.7
20260509040501 62 95 1.0 1.0 0.00 0.49 0.49 99 1014.9
20260509035957 62 98 0.0 0.0 0.00 0.49 0.49 99 1014.8
20260509035454 62 100 0.0 0.0 0.00 0.49 0.49 99 1014.8
20260509034951 62 103 0.0 1.0 0.00 0.49 0.49 99 1014.8
20260509034449 62 94 0.0 0.0 0.00 0.49 0.49 99 1015.0
20260509033946 62 84 0.0 1.0 0.00 0.49 0.49 99 1014.7
20260509033443 62 117 0.0 0.0 0.00 0.49 0.49 99 1014.9
20260509032939 62 99 0.0 0.0 0.00 0.49 0.49 99 1015.0
20260509032437 62 100 0.0 0.0 0.00 0.49 0.49 99 1014.7
20260509031935 62 97 0.0 0.0 0.00 0.49 0.49 99 1014.7
20260509031432 62 102 2.0 2.0 0.00 0.49 0.49 99 1014.5
20260509030929 62 104 0.0 1.0 0.00 0.49 0.49 99 1014.5
20260509030427 62 98 0.0 1.0 0.00 0.49 0.49 99 1014.4
20260509025924 62 107 0.0 1.0 0.00 0.49 0.49 99 1014.3
20260509025419 62 97 0.0 0.0 0.00 0.49 0.49 99 1014.5
20260509024915 62 97 0.0 0.0 0.00 0.49 0.49 99 1014.6
20260509024411 62 105 0.0 1.0 0.00 0.49 0.49 99 1014.7
20260509023908 62 99 0.0 0.0 0.00 0.49 0.49 99 1014.5
20260509023406 62 96 0.0 0.0 0.00 0.49 0.49 99 1014.3
20260509022902 62 105 0.0 0.0 0.00 0.49 0.49 99 1014.7
20260509022359 62 110 0.0 0.0 0.00 0.49 0.49 99 1014.2
20260509021856 62 82 0.0 0.0 0.00 0.49 0.49 99 1014.3
20260509021353 62 90 0.0 0.0 0.00 0.49 0.49 99 1014.6
20260509020851 62 93 0.0 0.0 0.00 0.49 0.49 99 1014.0
20260509020349 62 106 0.0 0.0 0.00 0.49 0.49 99 1014.1
20260509015846 62 94 1.0 1.0 0.00 0.49 0.49 99 1014.3
20260509015344 62 67 0.0 1.0 0.00 0.49 0.49 99 1014.3
20260509014840 62 88 0.0 0.0 0.00 0.49 0.49 99 1013.7
20260509014337 62 75 0.0 0.0 0.00 0.49 0.49 99 1014.2
20260509013834 62 44 1.0 1.0 0.00 0.49 0.49 99 1014.3
20260509013330 62 92 1.0 1.0 0.00 0.49 0.49 99 1014.0
20260509012826 62 40 1.0 1.0 0.00 0.49 0.49 99 1014.3
20260509012323 63 71 0.0 0.0 0.00 0.49 0.49 99 1014.1
20260509011821 63 50 0.0 1.0 0.00 0.49 0.49 99 1014.5
20260509011318 63 81 0.0 0.0 0.00 0.49 0.49 99 1014.6
20260509010815 63 61 0.0 1.0 0.00 0.49 0.49 99 1014.6
20260509010313 63 77 0.0 0.0 0.00 0.49 0.49 99 1014.5
20260509005810 63 78 0.0 1.0 0.00 0.49 0.49 99 1014.2
20260509005308 63 86 0.0 0.0 0.00 0.49 0.49 99 1014.0
20260509004808 63 79 0.0 0.0 0.00 0.49 0.49 99 1014.7
20260509004304 63 84 0.0 0.0 0.00 0.49 0.49 99 1014.7
20260509003802 63 85 0.0 0.0 0.00 0.49 0.49 99 1014.7
20260509003300 63 73 0.0 1.0 0.00 0.49 0.49 99 1014.6
20260509002757 63 81 0.0 0.0 0.00 0.49 0.49 99 1014.6
20260509002254 63 83 0.0 1.0 0.00 0.49 0.49 99 1014.6
20260509001752 63 80 0.0 0.0 0.00 0.49 0.49 99 1014.3
20260509001247 63 80 0.0 1.0 0.00 0.49 0.49 99 1014.6
20260509000745 63 83 0.0 0.0 0.00 0.49 0.49 99 1014.2
20260509000242 63 81 0.0 0.0 0.00 0.49 0.49 99 1014.5
20260508235739 63 87 0.0 0.0 0.00 0.49 0.49 99 1014.6
20260508235236 63 92 0.0 0.0 0.00 0.49 0.49 99 1014.5
20260508234733 63 83 0.0 0.0 0.00 0.49 0.49 99 1014.5
20260508234229 63 79 0.0 0.0 0.00 0.49 0.49 99 1014.6
20260508233729 63 85 0.0 1.0 0.00 0.49 0.49 99 1014.3
20260508233227 63 88 0.0 0.0 0.00 0.49 0.49 99 1014.5
20260508232724 63 94 0.0 0.0 0.00 0.49 0.49 99 1014.9
20260508232220 63 98 0.0 0.0 0.00 0.49 0.49 99 1014.8
20260508231718 63 85 0.0 0.0 0.00 0.49 0.49 99 1014.6
20260508231215 63 73 0.0 0.0 0.00 0.49 0.49 99 1014.8
20260508230712 63 71 0.0 0.0 0.00 0.49 0.49 99 1014.3
20260508230208 63 92 0.0 0.0 0.00 0.49 0.49 99 1014.5
20260508225706 63 87 0.0 0.0 0.00 0.49 0.49 99 1014.5
20260508225201 63 81 0.0 0.0 0.00 0.49 0.49 99 1014.5
20260508224700 63 97 0.0 0.0 0.00 0.49 0.49 99 1014.7
20260508224157 63 98 0.0 0.0 0.00 0.49 0.49 99 1014.6
20260508223655 63 82 0.0 0.0 0.00 0.49 0.49 99 1014.4
20260508223152 62 63 0.0 1.0 0.07 0.49 0.49 99 1014.8
20260508222649 62 63 0.0 1.0 0.14 0.49 0.49 99 1014.6
20260508222146 62 285 2.0 3.0 0.07 0.48 0.48 99 1013.7
20260508221642 62 84 0.0 0.0 0.00 0.47 0.47 99 1014.1
20260508221138 62 115 1.0 1.0 0.00 0.47 0.47 99 1014.0
20260508220635 62 99 0.0 1.0 0.00 0.47 0.47 99 1014.6
20260508220132 62 107 0.0 0.0 0.00 0.47 0.47 99 1015.0
20260508215628 62 84 0.0 0.0 0.00 0.47 0.47 99 1015.1
20260508215125 62 70 0.0 1.0 0.00 0.47 0.47 99 1015.4
20260508214622 62 107 0.0 1.0 0.00 0.47 0.47 99 1015.7
20260508214119 62 77 1.0 2.0 0.00 0.47 0.47 99 1014.8
20260508213616 62 94 0.0 2.0 0.00 0.47 0.47 99 1014.0
20260508213112 62 64 3.0 4.0 0.00 0.47 0.47 99 1013.6
20260508212609 62 132 0.0 3.0 0.05 0.47 0.47 99 1014.1
20260508212105 62 46 1.0 2.0 0.00 0.46 0.46 99 1014.5
20260508211600 62 122 0.0 0.0 0.07 0.46 0.46 99 1015.3
20260508211057 62 93 0.0 1.0 0.07 0.46 0.46 99 1015.1
20260508210553 62 104 0.0 3.0 0.05 0.45 0.45 99 1015.3
20260508210051 62 128 2.0 4.0 1.06 0.45 0.45 99 1015.4
20260508205548 62 97 2.0 2.0 1.02 0.44 0.44 99 1015.8
20260508205044 0 0.0 0.0 0.00 0.00 0.00 1016.8
20260508204541 0 0.0 0.0 0.00 0.00 0.00 1017.6
20260508204037 0 0.0 0.0 0.00 0.00 0.00 1017.6
20260508203533 0 0.0 0.0 0.00 0.00 0.00 1017.6
20260508203029 0 0.0 0.0 0.00 0.00 0.00 1017.7
20260508202526 0 0.0 0.0 0.00 0.00 0.00 1017.4
20260508202023 0 0.0 0.0 0.00 0.00 0.00 1017.4
20260508201520 0 0.0 0.0 0.00 0.00 0.00 1017.2
20260508201016 0 0.0 0.0 0.00 0.00 0.00 1016.9
20260508200514 0 0.0 0.0 0.00 0.00 0.00 1017.5
20260508200009 0 0.0 0.0 0.00 0.00 0.00 1017.1
20260508195506 62 75 1.0 1.0 0.00 0.27 0.27 99 1016.9
20260508195002 62 75 1.0 1.0 0.00 0.27 0.27 99 1017.0
20260508194459 62 75 1.0 1.0 0.00 0.27 0.27 99 1017.0
20260508193956 62 75 1.0 1.0 0.00 0.27 0.27 99 1016.9
20260508193453 62 75 1.0 1.0 0.00 0.27 0.27 99 1016.7
20260508192949 62 75 1.0 1.0 0.00 0.27 0.27 99 1016.3
20260508192446 62 75 1.0 1.0 0.00 0.27 0.27 99 1016.2
20260508191943 62 75 1.0 1.0 0.00 0.27 0.27 99 1016.1
20260508191441 62 75 1.0 1.0 0.00 0.27 0.27 99 1016.1
20260508190937 62 75 1.0 1.0 0.00 0.27 0.27 99 1016.2
20260508190434 62 75 1.0 1.0 0.66 0.27 0.27 99 1016.5
20260508185930 62 144 2.0 2.0 0.00 0.16 0.16 98 1016.7
20260508185428 62 144 2.0 2.0 0.00 0.16 0.16 98 1016.6
20260508184925 62 144 2.0 2.0 0.00 0.16 0.16 98 1017.2
20260508184422 62 144 2.0 2.0 0.00 0.16 0.16 98 1016.9
20260508183919 62 144 2.0 2.0 0.00 0.16 0.16 98 1017.2